Regional Weather Roundup
Issued by NWS

Home | Current Version | Previous Version | Graphics & Text | Print | Product List | Glossary On
Versions: 1 2 3 4 5 6 7 8 9 10 11 12 13 14 15 16 17 18 19 20 21 22 23 24 25 26 27
000
ASUS45 KBOU 191707
RWRCO

WEATHER ROUNDUP FOR COLORADO
NATIONAL WEATHER SERVICE DENVER/BOULDER CO
1000 AM MST SUN FEB 19 2017

NOTE: "FAIR" INDICATES FEW OR NO CLOUDS BELOW 12000 FEET WITH NO
SIGNIFICANT WEATHER AND/OR OBSTRUCTIONS TO VISIBILITY.

COZ001>005-013-030-031-191800-
...NORTHWEST COLORADO...

CITY           SKY/WX    TMP DP  RH WIND       PRES   REMARKS
CRAIG          PTSUNNY   36  31  82 CALM      29.73F
HAYDEN         CLOUDY    34  25  69 SE9       29.74S WCI  26
MEEKER         PTSUNNY   37  33  85 CALM      29.72F
MOUNT WERNER   NOT AVBL
STEAMBOAT SPGS NOT AVBL
WALDEN         NOT AVBL
$$

COZ006>008-011-191800-
...WEST CENTRAL VALLEYS...

CITY           SKY/WX    TMP DP  RH WIND       PRES   REMARKS
GRAND JUNCTION CLOUDY    44  36  73 CALM      29.73S
MONTROSE       FAIR      42  35  76 CALM      29.76S
EAGLE          MOSUNNY   34  28  80 CALM      29.79F
RIFLE          FAIR      41  34  76 CALM      29.73F
DELTA          FAIR      41  34  76 CALM      29.75R
NUCLA          DRIZZLE   41  36  81 S7        29.83R
$$

COZ017>023-064>068-191800-
...SOUTHWEST COLORADO...

CITY           SKY/WX    TMP DP  RH WIND       PRES   REMARKS
DURANGO        LGT SNOW  32  32 100 SE5       29.84R FOG     WCI  27
CORTEZ         LGT RAIN  36  34  92 MISG      29.84R
PAGOSA SPRINGS LGT SNOW  34  34 100 SE3       29.85S
TELLURIDE      CLOUDY    36  27  69 SW5       29.80S
WOLF CREEK PAS SNOW      21  21 100 SW14      29.91S VSB 1/4 WCI   8
$$

COZ009-010-012-014-032>034-037-058>063-191800-
...CENTRAL COLORADO...

CITY           SKY/WX    TMP DP  RH WIND       PRES   REMARKS
ASPEN          PTSUNNY   35  26  69 N10       29.73F WCI  27
BUENA VISTA    NOT AVBL
COPPER MTN     NOT AVBL
BERTHOUD PASS  FAIR      27  16  63 SE24G32   29.88R WCI  12
COTTONWOOD PAS CLOUDY    36  25  64 E6        29.84R
GUNNISON       FAIR      30  23  75 SE3       29.79S
KREMMLING      PTSUNNY   34  30  86 CALM      29.80F
LEADVILLE      CLOUDY    29  20  69 S7        29.80F WCI  22
MONARCH PASS   FAIR      28  21  74 S23G38    29.98R WCI  14
SALIDA         FAIR      50  22  32 S12G18    29.85S
SUNLIGHT       NOT AVBL
WILKERSON PASS PTSUNNY   34  19  55 SW5       29.90S WCI  30
$$

COZ069>075-191800-
...SAN LUIS VALLEY/SANGRE DE CRISTO MOUNTAINS...

CITY           SKY/WX    TMP DP  RH WIND       PRES   REMARKS
ALAMOSA        FAIR      38  29  70 CALM      29.80F
LA VETA PASS   FAIR      36  23  60 NE10G16   29.87S
SAGUACHE       CLOUDY    43  28  56 S7        29.82F
$$

COZ035-036-038>040-191800-
...NORTHERN COLORADO FRONT RANGE...

CITY           SKY/WX    TMP DP  RH WIND       PRES   REMARKS
DENVER INTL AP PTSUNNY   54  24  31 CALM      29.69F
DMNS CITY PARK   N/A     52  24  34 W3G9      29.69F
AURORA         PTSUNNY   53  26  34 CALM      29.70F
FRONT RANGE AP PTSUNNY   57  27  30 CALM      29.70F
ERIE MUNI ARPT FAIR      52  24  33 CALM      29.69F
BOULDER MUN AP FAIR      50  25  37 CALM      29.69F
CENTENNIAL     PTSUNNY   58  20  22 CALM      29.70F
BROOMFIELD     PTSUNNY   52  25  35 CALM      29.71F
FORT COLLINS   FAIR      48  26  42 S6        29.70S
LONGMONT       FAIR      52  25  35 CALM      29.71F
$$

COZ041-046-047-076>085-087-088-191800-
...PIKES PEAK/PALMER DIVIDE AND SOUTHERN FOOTHILLS...

CITY           SKY/WX    TMP DP  RH WIND       PRES   REMARKS
COLO. SPRINGS  PTSUNNY   53  23  31 SE13      29.75F
A. F. ACADEMY  FAIR      52  23  32 S7        29.74F
SCHRIEVER AFB  FAIR      51  23  33 SE13G23   29.76S
ELLICOTT       FAIR     N/A N/A N/A S18       29.74S
FALCON         NOT AVBL
FORT CARSON    FAIR      53  25  34 CALM      29.73S
LIMON          FAIR      53  30  41 SE10      29.75R
MONUMENT HILL  FAIR      54  21  28 S16       29.76F
TRINIDAD       FAIR      55  29  36 VRB3      29.76R
$$

COZ042>045-048>051-090-091-191800-
...NORTHEAST COLORADO...

CITY           SKY/WX    TMP DP  RH WIND       PRES   REMARKS
GREELEY ARPT   FAIR      44  26  49 NW6       29.71S
AKRON          FAIR      54  29  38 SW10      29.70R
BURLINGTON     FAIR      63  35  35 S29G38    29.73S
WRAY           NOT AVBL
STERLING       FAIR      43  28  56 S3        29.68S
HOLYOKE        FAIR      52  34  50 S6        29.71S
FORT MORGAN    FAIR      46  27  46 CALM      29.69F
$$

COZ086-089-092>099-191800-
...SOUTHEAST COLORADO...

CITY           SKY/WX    TMP DP  RH WIND       PRES   REMARKS
PUEBLO         FAIR      51  29  42 CALM      29.71F
LA JUNTA       FAIR      61  32  33 SE13      29.71F
LAMAR          FAIR      58  36  43 SE12      29.72F
SPRINGFIELD      N/A     52  39  61 S17G26    29.77S
$$




USA.gov is the U.S. government's official web portal to all federal, state and local government web resources and services.